map of BWN home
Great Circle Mapper logo
BWN - Airport
Location
City:  Bandar Seri Begwan, Brunei Darussalam
Name:Bandar Seri Begwan International Airport
ICAO / IATA:WBSB / BWN

Details
Type:Airport (Aerodrome, Airfield)
Use:Public/Civil, International (customs port of entry)
Latitude:456'39"N (4.944200)
Longitude:11455'42"E (114.928353)
Datum:WGS 1984
Elevation:73 ft (22 m)
Variation:0.2E (WMM2010 magnetic declination)
Runways:1
Longest:12000 × 150 ft (3658 × 45.5 m), paved

Time
Time Zone:UTC+8
Local Time:

Weather
METAR:WBSB 220800Z 30010KT 9999 TS SCT016 FEW017CB BKN300 30/26 Q1007 NOSIG
TAF:WBSB 220500Z 2206/2312 33010KT 9999 SCT016 FEW017CB
TEMPO 2207/2209 8000 -SHRA
BECMG 2210/2212 14003KT SCT014 FEW016CB BKN140
TEMPO 2212/2216 4000 TSRA

Related Locations
Nearby:
Farthest:SWUY: 12431 mi / 20006 km
Coari [Urucu], AM, BR

Find:

   beyond  
but within

Other Information
Maps:
NOTAMs:
Links:
Sources:

  
flag of Brunei Darussalam   

Sectional Chart

Flight Planning
at skyvector.com

Satellite Image

Google Maps Satellite View

 

Copyright © 2004-2014 Karl L. Swartz. All rights reserved.
The Great Circle Mapper name and logo are trademarks of the Great Circle Mapper.
All other trademarks mentioned herein belong to their respective owners.
Please see credits for attibutions and further copyright information.

  Follow gcmap on Facebook Follow gcmap on Twitter

hCard Microformat

Geo Microformat